カタログに戻る

ORBCOMM FM 8

運用中通信LEO
NORAD 25112·PAYLOAD·🇺🇸 United States

打ち上げ Dec 23, 1997 から Cape Canaveral Space Force Station

Loading…

次のパス (今後24時間)

TLE

最新Source: Space-Track

元期: Sep 14, 2026, 15:05 UTC

1 25112U 97084A   26257.62849318  .00000804  00000-0  25618-3 0  9999
2 25112  45.0152 343.1412 0003605  38.2423 321.8684 14.47437111507180

AllMySatでORBCOMM FM 8をリアルタイム追跡

Download on the App Store